| time (UTC) | temp F | wind direction | speed knots | gust knots | rain 1hr in | rain 24hr in | rain mn in | humidity % | barometer mb |
| 20260506013322 | 71 | 98 | 0.0 | 1.7 | 0.00 | 0.00 | 0.00 | 59 | 1013.3 |
| 20260506012346 | 71 | 98 | 0.9 | 2.6 | 0.00 | 0.00 | 0.00 | 58 | 1013.0 |
| 20260506011334 | 71 | 124 | 0.0 | 0.9 | 0.00 | 0.00 | 0.00 | 58 | 1013.0 |
| 20260506010337 | 72 | 148 | 0.0 | 0.9 | 0.00 | 0.00 | 0.00 | 56 | 1013.0 |
| 20260506005320 | 72 | 148 | 0.0 | 1.7 | 0.00 | 0.00 | 0.00 | 56 | 1012.8 |
| 20260506004344 | 73 | 165 | 0.9 | 2.6 | 0.00 | 0.00 | 0.00 | 55 | 1012.8 |
| 20260506003328 | 73 | 150 | 0.0 | 0.9 | 0.00 | 0.00 | 0.00 | 54 | 1012.7 |
| 20260506002331 | 74 | 150 | 0.0 | 1.7 | 0.00 | 0.00 | 0.00 | 53 | 1012.8 |
| 20260506001339 | 74 | 173 | 0.0 | 1.7 | 0.00 | 0.00 | 0.00 | 52 | 1012.6 |
| 20260506000338 | 75 | 180 | 0.0 | 2.6 | 0.00 | 0.00 | 0.00 | 52 | 1012.6 |
| 20260505235403 | 75 | 161 | 0.9 | 2.6 | 0.00 | 0.00 | 0.00 | 50 | 1012.6 |
| 20260505234325 | 75 | 158 | 0.0 | 2.6 | 0.00 | 0.00 | 0.00 | 50 | 1012.6 |
| 20260505233329 | 76 | 173 | 0.9 | 1.7 | 0.00 | 0.00 | 0.00 | 49 | 1012.5 |
| 20260505232316 | 76 | 163 | 0.9 | 2.6 | 0.00 | 0.00 | 0.00 | 50 | 1012.5 |
| 20260505231357 | 76 | 218 | 0.9 | 2.6 | 0.00 | 0.00 | 0.00 | 48 | 1012.5 |
| 20260505230320 | 76 | 168 | 0.0 | 1.7 | 0.00 | 0.00 | 0.00 | 48 | 1012.5 |
| 20260505225321 | 77 | 195 | 0.0 | 2.6 | 0.00 | 0.00 | 0.00 | 48 | 1012.6 |
| 20260505224344 | 78 | 205 | 0.9 | 1.7 | 0.00 | 0.00 | 0.00 | 46 | 1012.7 |
| 20260505223328 | 78 | 221 | 0.9 | 4.3 | 0.00 | 0.00 | 0.00 | 45 | 1012.6 |
| 20260505222332 | 78 | 165 | 2.6 | 6.1 | 0.00 | 0.00 | 0.00 | 44 | 1012.6 |
| 20260505221319 | 79 | 170 | 0.9 | 4.3 | 0.00 | 0.00 | 0.00 | 44 | 1012.5 |
| 20260505220338 | 79 | 186 | 2.6 | 6.1 | 0.00 | 0.00 | 0.00 | 43 | 1012.3 |
| 20260505215322 | 79 | 271 | 0.9 | 4.3 | 0.00 | 0.00 | 0.00 | 45 | 1012.4 |
| 20260505214326 | 79 | 163 | 1.7 | 4.3 | 0.00 | 0.00 | 0.00 | 43 | 1012.3 |
| 20260505213329 | 79 | 138 | 1.7 | 7.0 | 0.00 | 0.00 | 0.00 | 41 | 1012.3 |
| 20260505212333 | 79 | 205 | 0.9 | 5.2 | 0.00 | 0.00 | 0.00 | 42 | 1012.4 |
| 20260505211400 | 80 | 169 | 0.9 | 4.3 | 0.00 | 0.00 | 0.00 | 39 | 1012.5 |
| 20260505210344 | 80 | 191 | 0.0 | 2.6 | 0.00 | 0.00 | 0.00 | 37 | 1012.4 |
| 20260505205327 | 80 | 213 | 0.9 | 3.5 | 0.00 | 0.00 | 0.00 | 36 | 1012.3 |
| 20260505204350 | 81 | 136 | 1.7 | 4.3 | 0.00 | 0.00 | 0.00 | 36 | 1012.3 |
| 20260505203348 | 81 | 166 | 0.9 | 8.7 | 0.00 | 0.00 | 0.00 | 37 | 1012.3 |
| 20260505202317 | 81 | 211 | 1.7 | 4.3 | 0.00 | 0.00 | 0.00 | 35 | 1012.2 |
| 20260505201323 | 81 | 208 | 0.9 | 7.0 | 0.00 | 0.00 | 0.00 | 33 | 1012.3 |
| 20260505200327 | 81 | 192 | 2.6 | 6.1 | 0.00 | 0.00 | 0.00 | 33 | 1012.4 |
| 20260505195332 | 82 | 186 | 1.7 | 3.5 | 0.00 | 0.00 | 0.00 | 35 | 1012.5 |
| 20260505194335 | 82 | 107 | 1.7 | 3.5 | 0.00 | 0.00 | 0.00 | 35 | 1012.5 |
| 20260505193334 | 82 | 140 | 0.9 | 3.5 | 0.00 | 0.00 | 0.00 | 33 | 1012.6 |
| 20260505192334 | 82 | 157 | 1.7 | 7.0 | 0.00 | 0.00 | 0.00 | 33 | 1012.8 |
| 20260505191339 | 81 | 188 | 0.9 | 4.3 | 0.00 | 0.00 | 0.00 | 32 | 1012.9 |
| 20260505190342 | 81 | 300 | 0.9 | 2.6 | 0.00 | 0.00 | 0.00 | 33 | 1013.1 |
| 20260505185324 | 82 | 164 | 2.6 | 4.3 | 0.00 | 0.00 | 0.00 | 34 | 1013.3 |
| 20260505184327 | 82 | 166 | 1.7 | 4.3 | 0.00 | 0.00 | 0.00 | 33 | 1013.4 |
| 20260505183329 | 82 | 192 | 1.7 | 7.0 | 0.00 | 0.00 | 0.00 | 35 | 1013.5 |
| 20260505182327 | 82 | 177 | 1.7 | 4.3 | 0.00 | 0.00 | 0.00 | 36 | 1013.6 |
| 20260505181334 | 82 | 178 | 0.9 | 6.1 | 0.00 | 0.00 | 0.00 | 34 | 1014.2 |
| 20260505180339 | 82 | 194 | 2.6 | 6.1 | 0.00 | 0.00 | 0.00 | 34 | 1013.9 |
| 20260505175343 | 82 | 174 | 1.7 | 6.1 | 0.00 | 0.00 | 0.00 | 34 | 1014.0 |
| 20260505174344 | 82 | 233 | 1.7 | 6.1 | 0.00 | 0.00 | 0.00 | 34 | 1014.1 |
| 20260505173346 | 81 | 301 | 0.9 | 4.3 | 0.00 | 0.00 | 0.00 | 36 | 1014.1 |
| 20260505172329 | 81 | 176 | 0.9 | 5.2 | 0.00 | 0.00 | 0.00 | 40 | 1014.1 |
| 20260505171317 | 81 | 176 | 0.9 | 3.5 | 0.00 | 0.00 | 0.00 | 37 | 1014.3 |
| 20260505170340 | 81 | 236 | 0.9 | 4.3 | 0.00 | 0.00 | 0.00 | 38 | 1014.3 |
| 20260505165341 | 80 | 217 | 0.9 | 3.5 | 0.00 | 0.00 | 0.00 | 41 | 1014.3 |
| 20260505164322 | 80 | 150 | 1.7 | 3.5 | 0.00 | 0.00 | 0.00 | 43 | 1014.4 |
| 20260505163351 | 80 | 282 | 0.9 | 4.3 | 0.00 | 0.00 | 0.00 | 44 | 1014.7 |
| 20260505162319 | 80 | 85 | 1.7 | 3.5 | 0.00 | 0.00 | 0.00 | 47 | 1014.8 |
| 20260505161325 | 79 | 157 | 0.9 | 1.7 | 0.00 | 0.00 | 0.00 | 48 | 1014.9 |
| 20260505160327 | 79 | 192 | 0.9 | 2.6 | 0.00 | 0.00 | 0.00 | 49 | 1015.0 |
| 20260505153333 | 77 | 181 | 0.9 | 2.6 | 0.00 | 0.00 | 0.00 | 55 | 1015.3 |
| 20260505152334 | 76 | 248 | 0.9 | 2.6 | 0.00 | 0.00 | 0.00 | 53 | 1015.4 |
| 20260505151316 | 76 | 257 | 0.9 | 1.7 | 0.00 | 0.00 | 0.00 | 55 | 1015.3 |
| 20260505150335 | 75 | 182 | 1.7 | 2.6 | 0.00 | 0.00 | 0.00 | 52 | 1015.2 |
| 20260505140329 | 71 | 146 | 0.0 | 0.0 | 0.00 | 0.00 | 0.00 | 59 | 1014.9 |
| 20260505124345 | 63 | 184 | 0.0 | 0.0 | 0.00 | 0.00 | 0.00 | 77 | 1015.1 |
| 20260505123342 | 61 | 155 | 0.0 | 0.0 | 0.00 | 0.00 | 0.00 | 80 | 1015.1 |
| 20260505122323 | 60 | 155 | 0.0 | 0.0 | 0.00 | 0.00 | 0.00 | 80 | 1015.1 |
| 20260505121359 | 59 | 84 | 0.0 | 0.0 | 0.00 | 0.00 | 0.00 | 82 | 1015.0 |
| 20260505120341 | 58 | 148 | 0.0 | 0.0 | 0.00 | 0.00 | 0.00 | 83 | 1014.9 |
| 20260505115321 | 58 | 143 | 0.0 | 0.0 | 0.00 | 0.00 | 0.00 | 84 | 1014.8 |
| 20260505114326 | 57 | 143 | 0.0 | 0.0 | 0.00 | 0.00 | 0.00 | 84 | 1014.8 |
| 20260505113327 | 56 | 143 | 0.0 | 0.0 | 0.00 | 0.00 | 0.00 | 85 | 1014.7 |
| 20260505112329 | 56 | 143 | 0.0 | 0.0 | 0.00 | 0.00 | 0.00 | 85 | 1014.7 |
| 20260505111334 | 56 | 142 | 0.0 | 0.0 | 0.00 | 0.00 | 0.00 | 85 | 1014.5 |
| 20260505110335 | 55 | 142 | 0.0 | 0.0 | 0.00 | 0.00 | 0.00 | 86 | 1014.6 |
| 20260505101346 | 55 | 142 | 0.0 | 0.0 | 0.00 | 0.00 | 0.00 | 84 | 1014.4 |
| 20260505100326 | 56 | 142 | 0.0 | 0.0 | 0.00 | 0.00 | 0.00 | 83 | 1014.3 |
| 20260505095330 | 56 | 142 | 0.0 | 0.0 | 0.00 | 0.00 | 0.00 | 83 | 1014.3 |
| 20260505094334 | 56 | 142 | 0.0 | 0.0 | 0.00 | 0.00 | 0.00 | 82 | 1014.2 |
| 20260505093336 | 57 | 142 | 0.0 | 0.0 | 0.00 | 0.00 | 0.00 | 81 | 1014.1 |
| 20260505092322 | 57 | 142 | 0.0 | 0.0 | 0.00 | 0.00 | 0.00 | 81 | 1014.1 |
| 20260505091352 | 57 | 142 | 0.0 | 0.0 | 0.00 | 0.00 | 0.00 | 80 | 1014.1 |
| 20260505090334 | 58 | 142 | 0.0 | 0.0 | 0.00 | 0.00 | 0.00 | 79 | 1014.2 |
| 20260505085401 | 58 | 142 | 0.0 | 0.0 | 0.00 | 0.00 | 0.00 | 79 | 1014.2 |
| 20260505084344 | 58 | 142 | 0.0 | 0.0 | 0.00 | 0.00 | 0.00 | 78 | 1014.1 |
| 20260505083347 | 59 | 142 | 0.0 | 0.0 | 0.00 | 0.00 | 0.00 | 78 | 1014.1 |
| 20260505082329 | 59 | 142 | 0.0 | 0.0 | 0.00 | 0.00 | 0.00 | 77 | 1014.2 |
| 20260505081339 | 59 | 142 | 0.0 | 0.0 | 0.00 | 0.00 | 0.00 | 76 | 1014.1 |
| 20260505080323 | 60 | 142 | 0.0 | 0.0 | 0.00 | 0.00 | 0.00 | 76 | 1014.2 |
| 20260505075323 | 60 | 142 | 0.0 | 0.0 | 0.00 | 0.00 | 0.00 | 76 | 1014.0 |
| 20260505074326 | 60 | 142 | 0.0 | 0.0 | 0.00 | 0.00 | 0.00 | 75 | 1014.0 |
| 20260505073330 | 60 | 142 | 0.0 | 0.0 | 0.00 | 0.00 | 0.00 | 75 | 1013.9 |
| 20260505072316 | 60 | 128 | 0.0 | 0.0 | 0.00 | 0.00 | 0.00 | 75 | 1013.9 |
| 20260505071327 | 60 | 128 | 0.0 | 0.0 | 0.00 | 0.00 | 0.00 | 74 | 1013.7 |
| 20260505070333 | 60 | 128 | 0.0 | 0.0 | 0.00 | 0.00 | 0.00 | 74 | 1013.5 |
| 20260505065332 | 60 | 128 | 0.0 | 0.0 | 0.00 | 0.00 | 0.00 | 74 | 1013.6 |
| 20260505064402 | 59 | 128 | 0.0 | 0.0 | 0.00 | 0.00 | 0.00 | 74 | 1013.6 |
| 20260505063323 | 59 | 128 | 0.0 | 0.0 | 0.00 | 0.00 | 0.00 | 74 | 1013.5 |
| 20260505062325 | 59 | 123 | 0.0 | 0.0 | 0.00 | 0.00 | 0.00 | 73 | 1013.6 |
| 20260505061331 | 60 | 123 | 0.0 | 0.0 | 0.00 | 0.00 | 0.00 | 72 | 1013.6 |
| 20260505060334 | 60 | 123 | 0.0 | 0.0 | 0.00 | 0.00 | 0.00 | 70 | 1013.7 |
| 20260505055356 | 60 | 123 | 0.0 | 0.0 | 0.00 | 0.00 | 0.00 | 69 | 1013.8 |
| 20260505054317 | 60 | 123 | 0.0 | 0.0 | 0.00 | 0.00 | 0.00 | 68 | 1013.8 |
| 20260505053320 | 61 | 123 | 0.0 | 0.0 | 0.00 | 0.00 | 0.00 | 67 | 1013.8 |
| 20260505052324 | 61 | 123 | 0.0 | 0.0 | 0.00 | 0.00 | 0.00 | 68 | 1013.7 |
| 20260505051331 | 61 | 119 | 0.0 | 0.0 | 0.00 | 0.00 | 0.00 | 67 | 1013.8 |
| 20260505050330 | 61 | 119 | 0.0 | 0.0 | 0.00 | 0.00 | 0.00 | 67 | 1013.8 |
| 20260505041326 | 59 | 113 | 0.0 | 0.0 | 0.00 | 0.00 | 0.00 | 71 | 1013.4 |
| 20260505040327 | 59 | 113 | 0.0 | 0.0 | 0.00 | 0.00 | 0.00 | 71 | 1013.3 |
| 20260505035330 | 59 | 113 | 0.0 | 0.0 | 0.00 | 0.00 | 0.00 | 72 | 1013.3 |
| 20260505034354 | 59 | 113 | 0.0 | 0.0 | 0.00 | 0.00 | 0.00 | 72 | 1013.1 |
| 20260505033317 | 59 | 113 | 0.0 | 0.0 | 0.00 | 0.00 | 0.00 | 73 | 1013.2 |
| 20260505032321 | 59 | 113 | 0.0 | 0.0 | 0.00 | 0.00 | 0.00 | 73 | 1013.2 |
| 20260505031327 | 59 | 113 | 0.0 | 0.0 | 0.00 | 0.00 | 0.00 | 72 | 1013.1 |
| 20260505030328 | 60 | 113 | 0.0 | 0.0 | 0.00 | 0.00 | 0.00 | 71 | 1013.0 |
| 20260505025331 | 60 | 113 | 0.0 | 0.0 | 0.00 | 0.00 | 0.00 | 69 | 1013.2 |
| 20260505024316 | 60 | 113 | 0.0 | 0.0 | 0.00 | 0.00 | 0.00 | 69 | 1013.2 |
| 20260505023329 | 61 | 113 | 0.0 | 0.0 | 0.00 | 0.00 | 0.00 | 68 | 1013.2 |
| 20260505022333 | 61 | 113 | 0.0 | 0.0 | 0.00 | 0.00 | 0.00 | 69 | 1013.1 |
| 20260505021340 | 62 | 113 | 0.0 | 0.0 | 0.00 | 0.00 | 0.00 | 68 | 1013.0 |
| 20260505020324 | 62 | 113 | 0.0 | 0.0 | 0.00 | 0.00 | 0.00 | 67 | 1013.1 |
| 20260505015327 | 62 | 113 | 0.0 | 0.0 | 0.00 | 0.00 | 0.00 | 68 | 1013.1 |
| 20260505014331 | 63 | 113 | 0.0 | 0.0 | 0.00 | 0.00 | 0.00 | 67 | 1013.0 |